Hourly Data Report for March 12, 2021

KUGAARUK CLIMATE
NUNAVUT
Current Station Operator: ECCC - MSC

68°32'15.060" N
89°47'47.020" W
15.80 m
2303094
71407
NBB

Download Data

Hourly Data (March 2021)
Hourly Data Report for March 12, 2021
TIME
LST
Temp Definition
°C
Dew Point Definition
°C
Rel Hum Definition
%
Precip. Amount Definition
mm

Wind Dir Definition
10's deg

Wind Spd Definition
km/h
Visibility Definition
km
Stn Press Definition
kPa
Hmdx Definition


Wind Chill Definition


Weather Definition


00:00 -33.5 -37.2 69 0.0 25 20   101.00   -48 LegendNANA
01:00 -33.2 -37.0 69 0.0 25 26   100.99   -49 LegendNANA
02:00 -33.4 -37.1 69 0.0 25 24   101.01   -49 LegendNANA
03:00 -33.2 -37.1 68 0.0 24 20   101.05   -47 LegendNANA
04:00 -34.1 -37.8 70 0.0 26 16   101.08   -47 LegendNANA
05:00 -34.1 -37.9 68 0.0 25 18   101.11   -48 LegendNANA
06:00 -33.2 -37.1 68 0.0 23 26   101.12   -49 LegendNANA
07:00 -34.2 -38.2 67 0.0 26 22   101.12   -49 LegendNANA
08:00 -33.2 -37.5 66 0.0 25 25   101.14   -49 LegendNANA
09:00 -33.0 -37.6 64 0.0 26 19   101.16   -47 LegendNANA
10:00 -32.0 -36.8 62 0.0 24 24   101.20   -47 LegendNANA
11:00 -31.4 -36.2 62 0.0 24 23   101.20   -46 LegendNANA
12:00 -31.1 -35.7 64 0.0 24 22   101.23   -45 LegendNANA
13:00 -30.8 -35.3 65 0.0 24 26   101.25   -46 LegendNANA
14:00 -30.4 -34.6 67 0.0 24 25   101.28   -45 LegendNANA
15:00 -30.0 -33.9 68 0.0 23 22   101.28   -44 LegendNANA
16:00 -29.6 -33.4 70 0.0 24 22   101.34   -43 LegendNANA
17:00 -29.0 -32.7 71 0.0 24 19   101.39   -42 LegendNANA
18:00 -28.8 -32.4 71 0.0 23 16   101.43   -40 LegendNANA
19:00 -28.9 -32.5 72 0.0 24 14   101.47   -40 LegendNANA
20:00 -29.3 -32.8 72 0.0 25 14   101.48   -40 LegendNANA
21:00 -30.2 -33.7 71 0.0 25 19   101.52   -43 LegendNANA
22:00 -30.8 -34.1 73 0.0 27 13   101.53   -42 LegendNANA
23:00 -29.0 -32.0 75 0.0 26 16   101.56   -41 LegendNANA

Notes on Data Quality.

Legend

  • E = Estimated
  • M = Missing
  • NA = Not Available*
  • [empty] = Indicates an unobserved value
Date modified: